This demonstration page uses our WeatherBlox Daily Observations layout. Learn more.

Left ArrowRight Arrow

Hourly Observations for July 25, 2022

Temp ( °F °C ) Dew Point ( °F °C ) Humidity (%) Winds ( mph kmh ) Pressure ( in mb ) Visibility ( mi km ) Precip ( " mm )
12:59 am 00:59 Clear 81 27.2 74 23.3 79 79 SSW 12 19 30.06 1018 10 16 0.00 0.00
1:59 am 01:59 Clear 80 26.7 76 24.4 87 87 SSW 9 15 30.06 1018 10 16 0.00 0.00
2:59 am 02:59 Mostly Clear 80 26.7 76 24.4 87 87 SSW 10 17 30.05 1018 10 16 0.00 0.00
3:59 am 03:59 Mostly Clear 78 25.6 73 22.8 85 85 SSW 9 15 30.04 1017 10 16 0.00 0.00
4:59 am 04:59 Partly Cloudy 78 25.6 73 22.8 85 85 SSW 10 17 30.04 1017 10 16 0.00 0.00
5:05 am 05:05 Mostly Cloudy 78 25.6 73 22.8 85 85 SSW 12 19 30.04 1017 10 16 0.00 0.00
5:59 am 05:59 Mostly Cloudy 78 25.6 73 22.8 85 85 SSW 10 17 30.05 1018 10 16 0.00 0.00
6:12 am 06:12 Partly Cloudy N/A N/A N/A SW 12 19 N/A 9 14 0.00 0.00
6:59 am 06:59 Mostly Cloudy 79 26.1 73 22.8 82 82 SSW 13 20 30.06 1018 10 16 0.00 0.00
7:59 am 07:59 Mostly Cloudy 79 26.1 73 22.8 82 82 SSW 14 22 30.06 1018 10 16 0.00 0.00
8:59 am 08:59 Partly Cloudy 81 27.2 73 22.8 77 77 SSW 13 20 30.05 1018 10 16 0.00 0.00
9:59 am 09:59 Mostly Cloudy 85 29.4 73 22.8 68 68 SSW 14 22 30.06 1018 10 16 0.00 0.00
10:59 am 10:59 Mostly Cloudy 88 31.1 73 22.8 61 61 SW 13 20 30.05 1018 10 16 0.00 0.00
11:59 am 11:59 Mostly Cloudy 90 32.2 74 23.3 59 59 SW 16 26 30.05 1018 10 16 0.00 0.00
12:59 pm 12:59 Mostly Cloudy 92 33.3 74 23.3 56 56 SW 12 19 30.03 1017 10 16 0.00 0.00
1:59 pm 13:59 Partly Cloudy 92 33.3 74 23.3 56 56 SW 12 19 30.01 1016 10 16 0.00 0.00
2:59 pm 14:59 Mostly Cloudy 94 34.4 73 22.8 51 51 SSW 14 22 29.99 1016 10 16 0.00 0.00
3:59 pm 15:59 Mostly Cloudy 94 34.4 73 22.8 51 51 SW 15 24 29.97 1015 10 16 0.00 0.00
4:59 pm 16:59 Mostly Cloudy 94 34.4 73 22.8 51 51 SSW 13 20 29.96 1015 10 16 0.00 0.00
5:59 pm 17:59 Cloudy 94 34.4 73 22.8 51 51 SSW 14 22 29.97 1015 10 16 0.00 0.00
6:59 pm 18:59 Cloudy 92 33.3 73 22.8 54 54 SW 12 19 29.98 1015 10 16 0.00 0.00
7:59 pm 19:59 Cloudy 86 30 73 22.8 65 65 WSW 9 15 30.00 1016 10 16 0.00 0.00
8:59 pm 20:59 Cloudy 86 30 73 22.8 65 65 W 12 19 30.02 1017 10 16 0.00 0.00
9:59 pm 21:59 Cloudy 86 30 73 22.8 65 65 S 5 7 30.02 1017 10 16 0.00 0.00
10:59 pm 22:59 Mostly Cloudy 85 29.4 73 22.8 68 68 SSW 7 11 30.03 1017 10 16 0.00 0.00
11:59 pm 23:59 Mostly Cloudy 83 28.3 73 22.8 72 72 W 9 15 30.02 1017 10 16 0.00 0.00

Powered by AerisWeather